Regional Weather Roundup
Issued by NWS

Home | Current Version | Previous Version | Graphics & Text | Print | Product List | Glossary On
Versions: 1 2 3 4 5 6 7 8 9 10 11 12 13 14 15 16 17 18 19 20 21 22 23 24 25 26 27 28 29 30 31 32 33 34 35 36 37 38 39 40 41 42 43 44 45 46 47 48 49 50
980
ASUS43 KLOT 241303
RWRIL

ILLINOIS REGIONAL WEATHER ROUNDUP
NATIONAL WEATHER SERVICE CHICAGO/ROMEOVILLE IL
800 AM CDT TUE MAY 24 2016

NOTE: "FAIR" INDICATES FEW OR NO CLOUDS BELOW 12,000 FEET WITH NO
SIGNIFICANT WEATHER AND/OR OBSTRUCTIONS TO VISIBILITY.

* THESE STATIONS ARE NOT UNDER NWS QUALITY CONTROL. THEY ALSO MAY NOT
  REPORT WEATHER SUCH AS PRECIPITATION OR FOG.

ILZ001-002-007-009-015-016-024-241400-
NORTHWEST ILLINOIS

CITY           SKY/WX    TMP DP  RH WIND       PRES   REMARKS
MOLINE         SUNNY     70  56  61 S8        29.94F
STERLING*      SUNNY     70  55  59 VRB3      29.97F
$$

ILZ003-004-008-010-011-017-018-241400-
NORTH CENTRAL ILLINOIS

CITY           SKY/WX    TMP DP  RH WIND       PRES   REMARKS
ROCKFORD       MOSUNNY   69  53  56 S7        29.98S
FREEPORT*      SUNNY     67  54  61 S10       29.98S
ROCHELLE*      SUNNY     70  54  57 S13       29.99S
DE KALB*       SUNNY     66  54  64 S9        30.01S
$$

ILZ005-006-012>014-019>023-241400-
NORTHEAST ILLINOIS

CITY           SKY/WX    TMP DP  RH WIND       PRES   REMARKS
CHICAGO-OHARE  MOSUNNY   67  50  54 SW5       30.01R
CHICAGO-MIDWAY MOSUNNY   67  47  48 S8        30.01R
AURORA         SUNNY     68  53  58 S7        30.01R
LANSING*       SUNNY     65  48  53 SW7       30.03R
WAUKEGAN       MOSUNNY   67  51  56 SW9       29.99R
DUPAGE AIRPORT SUNNY     67  53  61 S8        30.00R
WHEELING       MOSUNNY   67  50  54 S7        30.02R
MORRIS*        SUNNY     69  52  55 S5        30.01R
NORTHERLY ISL    N/A     66  46  48 S5          N/A
NORTHERLY ISL    N/A     66  46  48 S5          N/A
$$

LMZ740>746-241400-
SOUTHERN LAKE MICHIGAN

STATION/POSITION SKY/WX   TEMP    WIND        PRES    VSBY  WAVE
                          AIR SEA DIR/SP/G                  HT/PER
                          (F)     (DEG/KT/KT) (MB)    (MI)  (FT/S)
SOUTHERN BUOY              52 47  190/ 10/ 12 1014.9          1
WILMETTE HARBOR            60 54  220/  4/  6   N/A           1
HARRISON CRIB              67     190/ 14/ 15   N/A
BURNHAM HARBOR             67     180/  4/  7   N/A
CALUMET HARBOR             63     170/  5/  8 1015.2R
BURNS HARBOR               67     190/ 11/ 15 1016.6R
MICHIGAN CITY              67     180/ 10/ 13   N/A
MICHIGAN CITY 6N           61 56  210/  8/  8   N/A           1/ 2
ST. JOSEPH                 60 56  190/  6/  6   N/A           1
$$

ILZ025>027-034>036-040-047-049-050-058-095>099-241400-
WEST-CENTRAL ILLINOIS

CITY           SKY/WX    TMP DP  RH WIND       PRES   REMARKS
QUINCY         SUNNY     69  55  60 S9        29.97S
MACOMB*        SUNNY     69  56  63 S9        30.00S
PITTSFIELD*    MOSUNNY   67  58  72 S5        30.00S
$$

ILZ028>032-037-038-041>044-048-051>054-059>061-241400-
CENTRAL ILLINOIS

CITY           SKY/WX    TMP DP  RH WIND       PRES   REMARKS
BLOOMINGTON    SUNNY     69  56  63 S9        30.04R
DECATUR        MOSUNNY   69  53  56 S10       30.04R
PEORIA         SUNNY     67  55  65 S8        30.01R
LINCOLN*       SUNNY     69  57  65 S8        30.02R
SPRINGFIELD    SUNNY     72  56  57 S9        30.01R
TAYLORVILLE    NOT AVBL
$$

ILZ033-039-045-046-055>057-062-063-241400-
EAST-CENTRAL ILLINOIS

CITY           SKY/WX    TMP DP  RH WIND       PRES   REMARKS
CHAMPAIGN      MOSUNNY   70  50  49 S12       30.04R
MATTOON        MOSUNNY   64  50  60 S7        30.04R
$$

ILZ079-100>102-241400-
SOUTHWEST ILLINOIS

CITY           SKY/WX    TMP DP  RH WIND       PRES   REMARKS
ALTON          PTSUNNY   70  57  64 S12       30.01R
CAHOKIA*       CLOUDY    70  56  61 S3        30.01R
SPARTA*        CLOUDY    67  57  71 S3        30.04R
$$

ILZ064>066-069>071-074>076-080>082-084>086-088>090-092>094-241400-
SOUTH-CENTRAL ILLINOIS

CITY           SKY/WX    TMP DP  RH WIND       PRES   REMARKS
CARBONDALE     CLOUDY    65  59  81 E3        30.04R
CAIRO*         CLOUDY    67  61  83 CALM      30.05R
EFFINGHAM*     CLOUDY    66  56  70 CALM      30.07R
MARION         PTSUNNY   68  59  73 SE7       30.05R
MT. VERNON     CLOUDY    66  55  68 CALM      30.05S
SALEM*         CLOUDY    69  56  62 S3        30.04R
$$

ILZ067-068-072-073-078-083-087-091-241400-
SOUTHEAST ILLINOIS

CITY           SKY/WX    TMP DP  RH WIND       PRES   REMARKS
LAWRENCEVILLE  MOSUNNY   66  52  60 S7        30.07R
FLORA*         PTSUNNY   64  56  77 S3        30.06R
HARRISBURG*    CLOUDY    67  60  76 CALM      30.06R
ROBINSON*      PTSUNNY   65  55  71 S3        30.07R
CARMI*         PTSUNNY   63  58  84 CALM      30.07R
$$

ABBREVIATIONS USED IN REMARKS
   TC - TEMPERATURE IN CELSIUS
  WCI - WIND CHILL INDEX
   HX - HEAT INDEX
  VSB - VISIBILITY
$$





USA.gov is the U.S. government's official web portal to all federal, state and local government web resources and services.